Change the Weather History Date:

Monday, May 21, 2012

  Actual Average Record
Temperature  
Mean Temperature 79 °F 80 °F  
Max Temperature 89 °F 88 °F 95 °F (1975)
Min Temperature 68 °F 71 °F 57 °F (1894)
Degree Days  
Heating Degree Days 0 0  
Month to date heating degree days 0 0  
Since 1 July heating degree days 210 538  
Cooling Degree Days 14 15  
Month to date cooling degree days 321 263  
Year to date cooling degree days 1116 723  
Growing Degree Days 28 (Base 50)    
Moisture  
Dew Point 58 °F    
Average Humidity 54    
Maximum Humidity 78    
Minimum Humidity 29    
Precipitation  
Precipitation 0.00 in 0.08 in 2.21 in (1921)
Month to date precipitation 0.95 1.19  
Year to date precipitation 7.18 11.29  
Sea Level Pressure  
Sea Level Pressure 29.99 in    
Wind  
Wind Speed 5 mph (NNW)    
Max Wind Speed 17 mph    
Max Gust Speed 24 mph    
Visibility 10 miles    
Events      
T = Trace of Precipitation, MM = Missing Value Source: NWS Daily Summary

Daily Weather History Graph

Daily Weather History Graph

Search for Another Location

Airport or City:

Trip Planner

Search our weather history database for the weather conditions in past years. The results will help you decide how hot, cold, wet, or windy it might be!

Date:

Astronomy

May. 21, 2012 Rise Set
Actual Time 6:37 AM EDT 8:16 PM EDT
Civil Twilight 6:11 AM EDT 8:42 PM EDT
Nautical Twilight 5:40 AM EDT 9:13 PM EDT
Astronomical Twilight 5:07 AM EDT 9:46 PM EDT
Moon 7:00 AM EDT (5/21) 9:03 PM EDT (5/21)
Length of Visible Light 14h 30m
Length of Day
13h 39m
New Moon, 0% of the Moon is Illuminated
May 21
New Moon
May 28
First Quarter
Jun 4
Full
Jun 11
Last Quarter
Jun 19
New

Hourly Weather History & Observations

Time (EDT) Temp. Heat Index Dew Point Humidity Pressure Visibility Wind Dir Wind Speed Gust Speed Precip Events Conditions
12:53 AM 75.0 °F - 60.1 °F 60% 30.01 in 10.0 mi ESE 5.8 mph - N/A   Clear
1:53 AM 73.9 °F - 61.0 °F 64% 30.01 in 10.0 mi ENE 5.8 mph - N/A   Clear
2:53 AM 73.0 °F - 61.0 °F 66% 29.99 in 10.0 mi East 3.5 mph - N/A   Scattered Clouds
3:53 AM 72.0 °F - 61.0 °F 68% 29.98 in 10.0 mi Calm Calm - N/A   Partly Cloudy
4:53 AM 69.1 °F - 61.0 °F 75% 29.98 in 10.0 mi Calm Calm - N/A   Clear
5:53 AM 70.0 °F - 62.1 °F 76% 29.99 in 10.0 mi Calm Calm - N/A   Clear
6:53 AM 70.0 °F - 61.0 °F 73% 30.00 in 10.0 mi Calm Calm - N/A   Clear
7:53 AM 73.9 °F - 61.0 °F 64% 30.01 in 10.0 mi Calm Calm - N/A   Clear
8:53 AM 78.1 °F - 60.1 °F 54% 30.02 in 10.0 mi ENE 3.5 mph - N/A   Clear
9:53 AM 82.0 °F - 50.0 °F 33% 30.02 in 10.0 mi NE 5.8 mph - N/A   Clear
10:53 AM 84.0 °F - 48.9 °F 29% 30.03 in 10.0 mi NE 3.5 mph 17.3 mph N/A   Clear
11:53 AM 86.0 °F - 50.0 °F 29% 30.02 in 10.0 mi NNE 6.9 mph - N/A   Clear
12:53 PM 86.0 °F 84.2 °F 54.0 °F 33% 30.01 in 10.0 mi WSW 9.2 mph - N/A   Clear
1:53 PM 88.0 °F 86.5 °F 55.9 °F 34% 29.99 in 10.0 mi Variable 6.9 mph - N/A   Partly Cloudy
2:53 PM 87.1 °F 85.9 °F 57.0 °F 36% 29.98 in 10.0 mi West 9.2 mph 16.1 mph N/A   Partly Cloudy
3:53 PM 87.1 °F 86.1 °F 57.9 °F 37% 29.96 in 10.0 mi West 13.8 mph 20.7 mph N/A   Partly Cloudy
4:53 PM 87.1 °F 85.9 °F 57.0 °F 36% 29.95 in 10.0 mi WNW 11.5 mph 21.9 mph N/A   Partly Cloudy
5:53 PM 84.9 °F 83.9 °F 57.0 °F 38% 29.94 in 10.0 mi West 15.0 mph 19.6 mph N/A   Partly Cloudy
6:53 PM 84.0 °F 83.5 °F 57.9 °F 41% 29.94 in 10.0 mi West 9.2 mph - N/A   Partly Cloudy
7:53 PM 81.0 °F 81.6 °F 60.1 °F 49% 29.95 in 10.0 mi WNW 10.4 mph - N/A   Partly Cloudy
8:53 PM 78.1 °F - 61.0 °F 56% 29.96 in 10.0 mi NW 5.8 mph - N/A   Clear
9:53 PM 77.0 °F - 62.1 °F 60% 29.98 in 10.0 mi NW 3.5 mph - N/A   Clear
10:53 PM 75.0 °F - 62.1 °F 64% 29.99 in 10.0 mi Calm Calm - N/A   Clear
11:53 PM 73.9 °F - 62.1 °F 66% 29.99 in 10.0 mi Calm Calm - N/A   Clear